Weather History for Hilton Head Island, SC

Change the Weather History Date:

Tuesday, February 11, 2014

  Actual Average Record
Temperature  
Mean Temperature 44 °F -  
Max Temperature 51 °F 61 °F 51 °F (2014)
Min Temperature 37 °F 37 °F 37 °F (2014)
Degree Days  
Heating Degree Days 21    
Moisture  
Dew Point 40 °F    
Average Humidity 86    
Maximum Humidity 94    
Minimum Humidity 76    
Precipitation  
Precipitation 0.00 in - - ()
Sea Level Pressure  
Sea Level Pressure 30.19 in    
Wind  
Wind Speed 10 mph (NNE)    
Max Wind Speed 15 mph    
Max Gust Speed 23 mph    
Visibility 10 miles    
Events      
Averages and records for this station are not official NWS values.
T = Trace of Precipitation, MM = Missing Value Source: NWS Daily Summary

Daily Weather History Graph

Daily Weather History Graph

Search for Another Location

Airport:

Trip Planner

Search our weather history database for the weather conditions in past years. The results will help you decide how hot, cold, wet, or windy it might be!

Date:

Astronomy

Feb. 11, 2014 Rise Set
Actual Time 7:08 AM EST 6:05 PM EST
Civil Twilight 6:43 AM EST 6:30 PM EST
Nautical Twilight 6:14 AM EST 6:59 PM EST
Astronomical Twilight 5:46 AM EST 7:28 PM EST
Moon 3:29 PM EST (2/11) 4:40 AM EST (2/11)
Length of Visible Light 11h 46m
Length of Day
10h 56m
Waxing Gibbous, 90% of the Moon is Illuminated
Feb 11
Waxing Gibbous
Feb 14
Full
Feb 22
Last Quarter
Mar 1
New
Mar 8
First Quarter

Hourly Weather History & Observations

Time (EST) Temp. Windchill Dew Point Humidity Pressure Visibility Wind Dir Wind Speed Gust Speed Precip Events Conditions
12:15 AM 51.8 °F - 50.0 °F 94% 30.11 in 8.0 mi NNE 4.6 mph - 0.00 in   Scattered Clouds
12:35 AM 51.8 °F - 48.2 °F 88% 30.10 in 10.0 mi NNE 8.1 mph - 0.00 in   Overcast
12:55 AM 51.8 °F - 48.2 °F 88% 30.10 in 8.0 mi NNE 9.2 mph - 0.00 in   Mostly Cloudy
1:15 AM 51.8 °F - 48.2 °F 88% 30.10 in 9.0 mi NNE 8.1 mph - 0.00 in   Mostly Cloudy
1:35 AM 51.8 °F - 48.2 °F 88% 30.10 in 9.0 mi NNE 8.1 mph - 0.00 in   Mostly Cloudy
1:55 AM 51.8 °F - 46.4 °F 82% 30.10 in 9.0 mi NNE 9.2 mph 17.3 mph 0.00 in   Mostly Cloudy
2:15 AM 51.8 °F - 46.4 °F 82% 30.10 in 8.0 mi NNE 9.2 mph - 0.00 in   Mostly Cloudy
2:35 AM 50.0 °F - 46.4 °F 87% 30.11 in 8.0 mi NNE 10.4 mph - 0.00 in   Mostly Cloudy
2:55 AM 50.0 °F - 44.6 °F 82% 30.11 in 8.0 mi North 11.5 mph 19.6 mph 0.00 in   Mostly Cloudy
3:15 AM 48.2 °F - 44.6 °F 87% 30.11 in 9.0 mi NNE 10.4 mph 17.3 mph 0.00 in   Mostly Cloudy
3:35 AM 48.2 °F - 44.6 °F 87% 30.11 in 9.0 mi NNE 10.4 mph - 0.00 in   Mostly Cloudy
3:55 AM 48.2 °F - 44.6 °F 87% 30.11 in 10.0 mi NNE 6.9 mph - 0.00 in   Overcast
4:15 AM 48.2 °F - 44.6 °F 87% 30.12 in 9.0 mi NNE 8.1 mph - 0.00 in   Mostly Cloudy
4:35 AM 48.2 °F - 44.6 °F 87% 30.12 in 10.0 mi NNE 10.4 mph - 0.00 in   Mostly Cloudy
4:55 AM 48.2 °F - 42.8 °F 82% 30.12 in 9.0 mi NNE 12.7 mph 17.3 mph 0.00 in   Mostly Cloudy
5:15 AM 48.2 °F - 42.8 °F 82% 30.13 in 10.0 mi North 10.4 mph - 0.00 in   Mostly Cloudy
5:35 AM 48.2 °F - 42.8 °F 82% 30.13 in 9.0 mi North 8.1 mph 18.4 mph 0.00 in   Overcast
6:50 AM 46.4 °F 41.1 °F 39.2 °F 76% 30.15 in 10.0 mi NNE 11.5 mph - N/A   Overcast
7:50 AM 46.4 °F 41.1 °F 39.2 °F 76% 30.18 in 10.0 mi NNE 11.5 mph - N/A   Overcast
8:50 AM 44.6 °F 38.8 °F 39.2 °F 81% 30.20 in 10.0 mi NNE 11.5 mph - N/A   Overcast
9:50 AM 44.6 °F 38.8 °F 39.2 °F 81% 30.22 in 8.0 mi NNE 11.5 mph - N/A   Overcast
10:50 AM 44.6 °F 39.2 °F 39.2 °F 81% 30.23 in 9.0 mi NNE 10.4 mph - N/A   Overcast
11:50 AM 44.6 °F 39.2 °F 39.2 °F 81% 30.22 in 9.0 mi NNE 10.4 mph 16.1 mph N/A   Overcast
12:50 PM 44.6 °F 39.2 °F 39.2 °F 81% 30.20 in 10.0 mi NNE 10.4 mph - N/A   Overcast
1:50 PM 44.6 °F 38.8 °F 39.2 °F 81% 30.21 in 10.0 mi North 11.5 mph 16.1 mph N/A   Overcast
2:50 PM 42.8 °F 36.2 °F 39.2 °F 87% 30.20 in 10.0 mi North 12.7 mph - N/A   Overcast
3:50 PM 42.8 °F 37.0 °F 39.2 °F 87% 30.20 in 10.0 mi NNE 10.4 mph - N/A   Overcast
4:50 PM 41.0 °F 34.3 °F 37.4 °F 87% 30.20 in 10.0 mi NNE 11.5 mph 17.3 mph N/A   Overcast
5:50 PM 39.2 °F 32.0 °F 37.4 °F 93% 30.23 in 10.0 mi North 11.5 mph - N/A   Overcast
6:50 PM 39.2 °F 31.2 °F 35.6 °F 87% 30.23 in 10.0 mi NNE 13.8 mph - N/A   Overcast
7:50 PM 39.2 °F 31.6 °F 35.6 °F 87% 30.27 in 10.0 mi NNE 12.7 mph 19.6 mph N/A   Overcast
8:15 PM 37.4 °F 30.3 °F 35.6 °F 93% 30.28 in 10.0 mi North 10.4 mph 19.6 mph 0.00 in   Overcast
8:35 PM 37.4 °F 29.8 °F 35.6 °F 93% 30.28 in 10.0 mi North 11.5 mph 19.6 mph 0.00 in   Overcast
8:55 PM 37.4 °F 28.5 °F 35.6 °F 93% 30.28 in 10.0 mi North 15.0 mph 18.4 mph 0.00 in   Overcast
9:15 PM 37.4 °F 28.5 °F 35.6 °F 93% 30.29 in 10.0 mi North 15.0 mph 23.0 mph 0.00 in   Overcast
9:35 PM 37.4 °F 28.5 °F 33.8 °F 87% 30.29 in 10.0 mi North 15.0 mph 18.4 mph 0.00 in   Overcast
9:55 PM 37.4 °F 29.8 °F 33.8 °F 87% 30.29 in 10.0 mi North 11.5 mph 17.3 mph 0.00 in   Overcast
10:15 PM 37.4 °F 30.3 °F 33.8 °F 87% 30.29 in 10.0 mi North 10.4 mph 17.3 mph 0.00 in   Overcast
10:35 PM 37.4 °F 30.3 °F 33.8 °F 87% 30.28 in 10.0 mi North 10.4 mph 19.6 mph 0.00 in   Overcast
10:55 PM 37.4 °F 29.3 °F 33.8 °F 87% 30.26 in 10.0 mi North 12.7 mph 18.4 mph 0.00 in   Overcast
11:15 PM 37.4 °F 28.9 °F 35.6 °F 93% 30.27 in 10.0 mi North 13.8 mph 21.9 mph 0.00 in   Overcast
11:35 PM 37.4 °F 29.8 °F 33.8 °F 87% 30.27 in 10.0 mi North 11.5 mph 18.4 mph 0.00 in   Overcast
11:55 PM 37.4 °F 29.8 °F 35.6 °F 93% 30.26 in 10.0 mi North 11.5 mph 19.6 mph 0.00 in   Overcast